This is the latest recevied weather packets stored in our database for station/object DL1NUX-15. If no packets are shown the sender has not sent any weather packets the latest 10 day(s).
| Time | Temp. | Humidity | Pressure | Rain* | Wind** | Luminosity | Snow |
|---|---|---|---|---|---|---|---|
| 1788154518 | 59° F | 99% | 761.8 mmHg | 0 in | - | 16 W/m² | - |
| 1788153919 | 59° F | 99% | 761.7 mmHg | 0 in | - | 9 W/m² | - |
| 1788153319 | 59° F | 99% | 761.6 mmHg | 0 in | - | 4 W/m² | - |
| 1788152136 | 59° F | 99% | 761.5 mmHg | 0 in | - | 0 W/m² | - |
| 1788151537 | 59° F | 99% | 761.3 mmHg | 0 in | - | 0 W/m² | - |
| 1788150937 | 59° F | 99% | 761.4 mmHg | 0 in | - | 0 W/m² | - |
| 1788149140 | 58° F | 99% | 761.1 mmHg | 0 in | - | 0 W/m² | - |
| 1788147939 | 58° F | 98% | 761.2 mmHg | 0 in | - | 0 W/m² | - |
| 1788143742 | 60° F | 91% | 761 mmHg | 0 in | - | 0 W/m² | - |
| 1788141945 | 60° F | 89% | 760.9 mmHg | 0 in | - | 0 W/m² | - |
| 1788141344 | 60° F | 89% | 760.8 mmHg | 0 in | - | 0 W/m² | - |
| 1788140744 | 59° F | 91% | 760.8 mmHg | 0 in | - | 0 W/m² | - |
| 1788137147 | 58° F | 91% | 761.3 mmHg | 0 in | - | 0 W/m² | - |
| 1788135316 | 58° F | 92% | 761.6 mmHg | 0 in | - | 0 W/m² | - |
| 1788134132 | 58° F | 91% | 761.7 mmHg | 0 in | - | 0 W/m² | - |
| 1788132918 | 59° F | 90% | 761.8 mmHg | 0 in | - | 0 W/m² | - |
| 1788129920 | 59° F | 88% | 762.2 mmHg | 0 in | - | 0 W/m² | - |
| 1788128720 | 60° F | 83% | 762.2 mmHg | 0 in | - | 0 W/m² | - |
| 1788126921 | 60° F | 84% | 762.4 mmHg | 0 in | - | 0 W/m² | - |
| 1788124524 | 61° F | 81% | 762.2 mmHg | 0 in | - | 0 W/m² | - |
| 1788122125 | 62° F | 79% | 762.2 mmHg | 0 in | - | 0 W/m² | - |
| 1788120326 | 64° F | 75% | 762.2 mmHg | 0 in | - | 0 W/m² | - |
| 1788119726 | 64° F | 74% | 762.2 mmHg | 0 in | - | 0 W/m² | - |
| 1788118527 | 65° F | 71% | 762.3 mmHg | 0 in | - | 0 W/m² | - |
| 1788117328 | 66° F | 70% | 762.3 mmHg | 0 in | - | 0 W/m² | - |
* Rain latest hour (hover to see other rain measurements)
** Current wind speed in m/s (hover to see current wind gust speed)